{"data":{"norad_id":59152,"epoch":"2026-09-19T09:12:28.899648Z","epoch_age_seconds":255226,"freshness":"STALE","line1":"1 59152U 24044A   26262.38366782  .00000094  00000+0  12943-4 0  9992","line2":"2 59152  43.0062  42.4479 0001409 266.3891  93.6799 15.27578029143803","mean_motion":15.27578029,"eccentricity":0.0001409,"inclination_deg":43.0062,"raan_deg":42.4479,"arg_perigee_deg":266.3891,"mean_anomaly_deg":93.6799,"bstar":1.2943e-5,"rev_number":14380,"period_min":94.266870343944,"perigee_km":482.08825597655,"apogee_km":484.02173988157,"semimajor_km":6861.1919979291,"source":"CELESTRAK","updated_at":"2026-09-21T09:00:34.037868Z"}}